Regional Weather Roundup
Issued by NWS Jackson, KY

Home | Current Version | Previous Version | Graphics & Text | Print | Product List | Glossary On
Versions: 1 2 3 4 5 6 7 8 9 10 11 12 13 14 15 16 17 18 19 20 21 22 23 24 25 26 27 28 29 30 31 32 33 34 35 36 37 38 39 40 41 42 43 44 45 46 47 48 49 50
000
ASUS43 KJKL 310210
RWRJKL

EAST KENTUCKY HOURLY WEATHER ROUNDUP
NATIONAL WEATHER SERVICE JACKSON KY
1000 PM EDT SUN AUG 30 2015

NOTE: "FAIR" INDICATES FEW OR NO CLOUDS BELOW 12,000 FEET WITH
NO SIGNIFICANT WEATHER AND/OR OBSTRUCTIONS TO VISIBILITY.

* THESE REPORTS ARE NOT UNDER NWS QUALITY CONTROL AND MAY NOT
  REPORT WEATHER SUCH AS PRECIPITATION AND FOG.

KYZ079-080-083-085-087-088-110-112-115-119-120-310300
...EASTERN KENTUCKY...

CITY           SKY/WX    TMP DP  RH WIND       PRES   REMARKS
JACKSON        CLOUDY    75  65  70 CALM      30.14R
LONDON         CLOUDY    73  64  73 CALM      30.14R
SOMERSET*      MOCLDY    70  68  94 CALM      30.13R
MONTICELLO*    CLOUDY    69  69 100 CALM      30.15R
WILLIAMSBURG*  CLEAR     64  64 100 CALM      30.14
MIDDLESBORO*   DRIZZLE   70  69  96 CALM      30.15R
HAZARD APT*    CLEAR     72  72 100 CALM      30.13R
BLACK MTN*       N/A     64  59  82 E2          N/A
PIKEVILLE APT* CLEAR     72  64  78 CALM      30.14S
BIG SANDY*     MOCLDY    71  67  90 CALM      30.14R
MOREHEAD APT*  PTCLDY    72  64  78 S3        30.13R
$$

KYZ035-036-041-042-044-050-067-078-099-310300
...CENTRAL KENTUCKY...

CITY           SKY/WX    TMP DP  RH WIND       PRES   REMARKS
MT STERLING*   MOCLDY    68  66  94 SW3       30.13R
FLEMING/MASON* CLEAR     73  64  73 SW3       30.12R
DANVILLE*      MOCLDY    70  64  83 CALM      30.13R
RICHMOND*      MOCLDY    72  64  78 CALM      30.11R
LEXINGTON      MOCLDY    75  68  78 CALM      30.11R
FRANKFORT      PTCLDY    71  68  90 S3        30.09R
$$

KYZ091>093-OHZ055-061-077-WVZ005-015-034-035-042-310300
...SOUTHERN OHIO/WEST VIRGINIA...

CITY           SKY/WX    TMP DP  RH WIND       PRES   REMARKS
COVINGTON      MOCLDY    70  68  93 S5        30.09R
COLUMBUS       CLOUDY    77  67  71 SW6       30.07R
DAYTON         PTCLDY    73  64  73 SW8       30.10R
WILMINGTON     PTCLDY    68  63  84 CALM      30.10R
HUNTINGTON     MOCLDY    74  65  73 CALM      30.11R
CHARLESTON     PTCLDY    71  68  90 SE5       30.12R
PINEVILLE*     MOCLDY    68  68 100 MISG      30.22R FOG
BECKLEY        CLOUDY    69  61  75 S3        30.21R
BLUEFIELD      CLOUDY    71  60  68 SE5       30.23S
$$

VAZ002-007-008-TNZ017-027-036-066-071-310300
...SOUTHWEST VIRGINIA/EAST TENNESSEE...

CITY           SKY/WX    TMP DP  RH WIND       PRES   REMARKS
WISE*          CLOUDY    70  63  78 CALM      30.22R
JONESVILLE*    CLOUDY    73  64  73 CALM      30.18R
ABINGDON*      CLOUDY    72  59  63 E3        30.18S
BRISTOL        LGT RAIN  70  63  78 CALM      30.16R
KNOXVILLE      CLOUDY    67  64  90 CALM      30.06S
OAK RIDGE      CLOUDY    75  67  76 VRB3      30.13R
CROSSVILLE     CLOUDY    72  66  81 CALM      30.17R
NASHVILLE      MOCLDY    72  64  76 S6        30.10R
$$

...KEY TO REMARKS...
VSB - VISIBILITY IN MILES
WCI - WIND CHILL INDEX
HX  - HEAT INDEX

$$



USA.gov is the U.S. government's official web portal to all federal, state and local government web resources and services.